N0RWU Weather Reports


time (UTC)temp
C
wind
direction
speed
KPH
gust
KPH
rain 1hr
cm
rain 24hr
cm
rain mn
cm
humidity
%
barometer
mb
20260507103548 6 147 1.6 3.2 0.00 0.00 0.00 62 1003.3
20260507102547 6 167 0.0 0.0 0.00 0.00 0.00 60 1003.4
20260507101548 7 150 0.0 0.0 0.00 0.00 0.00 59 1003.5
20260507100547 7 172 3.2 4.8 0.00 0.00 0.00 56 1003.5
20260507094547 7 180 3.2 3.2 0.00 0.00 0.00 55 1003.7
20260507092548 7 209 3.2 4.8 0.00 0.00 0.00 51 1003.9
20260507091548 8 194 4.8 6.4 0.00 0.00 0.00 48 1004.2
20260507090548 8 155 6.4 6.4 0.00 0.00 0.00 47 1004.4
20260507085548 8 211 6.4 8.0 0.00 0.00 0.00 48 1004.8
20260507084548 8 220 4.8 6.4 0.00 0.00 0.00 48 1005.0
20260507083547 8 172 1.6 3.2 0.00 0.00 0.00 49 1005.1
20260507082548 8 167 6.4 6.4 0.00 0.00 0.00 50 1005.0
20260507081548 8 258 1.6 3.2 0.00 0.00 0.00 51 1004.9
20260507074548 7 185 3.2 3.2 0.00 0.00 0.00 54 1005.1
20260507073548 7 173 3.2 3.2 0.00 0.00 0.00 56 1005.2
20260507072547 6 196 3.2 4.8 0.00 0.00 0.00 60 1005.2
20260507071548 6 160 0.0 0.0 0.00 0.00 0.00 60 1005.2
20260507070547 5 208 3.2 3.2 0.00 0.00 0.00 61 1005.4
20260507065548 5 169 0.0 1.6 0.00 0.00 0.00 61 1005.5
20260507062549 4 173 1.6 3.2 0.00 0.00 0.00 65 1005.8
20260507061547 4 167 0.0 0.0 0.00 0.00 0.00 66 1005.6
20260507055548 3 157 0.0 0.0 0.00 0.00 0.00 69 1006.0
20260507054547 3 165 0.0 0.0 0.00 0.00 0.00 70 1005.8
20260507053547 3 156 0.0 0.0 0.00 0.00 0.00 70 1005.9
20260507052547 3 157 0.0 0.0 0.00 0.00 0.00 70 1006.0
20260507050548 4 154 0.0 0.0 0.00 0.00 0.00 70 1005.9
20260507044548 3 170 0.0 0.0 0.00 0.00 0.00 72 1006.2
20260507043548 3 179 0.0 0.0 0.00 0.00 0.00 71 1006.2
20260507041547 3 169 0.0 0.0 0.00 0.00 0.00 68 1006.4
20260507035548 3 141 0.0 0.0 0.00 0.00 0.00 68 1006.5
20260507032547 5 141 0.0 0.0 0.00 0.00 0.00 64 1006.6
20260507031548 5 157 0.0 0.0 0.00 0.00 0.00 63 1006.6
20260507030547 5 158 0.0 0.0 0.00 0.00 0.00 62 1006.8
20260507025548 5 158 0.0 0.0 0.00 0.00 0.00 61 1006.7
20260507024547 5 148 0.0 0.0 0.00 0.00 0.00 59 1006.7
20260507023548 6 148 0.0 0.0 0.00 0.00 0.00 57 1006.6
20260507022548 6 142 0.0 0.0 0.00 0.00 0.00 54 1006.7
20260507021548 7 145 0.0 0.0 0.00 0.00 0.00 53 1006.6
20260507020547 7 240 0.0 0.0 0.00 0.00 0.00 50 1006.6
20260507015547 7 240 0.0 0.0 0.00 0.00 0.00 47 1006.5
20260507013547 10 210 1.6 3.2 0.00 0.00 0.00 41 1006.5
20260507011548 11 266 0.0 0.0 0.00 0.00 0.00 37 1006.5
20260507010547 12 239 4.8 4.8 0.00 0.00 0.00 35 1006.5
20260507005547 12 258 3.2 3.2 0.00 0.00 0.00 33 1006.6
20260507004548 13 248 3.2 3.2 0.00 0.00 0.00 33 1006.6
20260507002548 13 257 8.0 9.7 0.00 0.00 0.00 32 1006.8
20260507001548 13 258 12.9 14.5 0.00 0.00 0.00 31 1006.8
20260507000547 13 254 8.0 11.3 0.00 0.00 0.00 31 1006.8
20260506235547 13 258 9.7 12.9 0.00 0.00 0.00 31 1006.8
20260506234548 15 307 6.4 8.0 0.00 0.00 0.00 30 1006.8
20260506233548 13 268 8.0 11.3 0.00 0.00 0.00 31 1006.9
20260506232549 13 254 9.7 11.3 0.00 0.00 0.00 31 1007.0
20260506231548 13 243 12.9 16.1 0.00 0.00 0.00 31 1007.1
20260506230547 14 256 4.8 4.8 0.00 0.00 0.00 31 1007.0
20260506225548 13 267 8.0 11.3 0.00 0.00 0.00 33 1007.1
20260506224547 13 247 11.3 16.1 0.00 0.00 0.00 32 1007.2
20260506222547 13 250 14.5 17.7 0.00 0.00 0.00 32 1007.2
20260506221549 14 259 14.5 16.1 0.00 0.00 0.00 32 1007.2
20260506215547 15 272 9.7 12.9 0.00 0.00 0.00 30 1007.2
20260506214548 15 256 8.0 11.3 0.00 0.00 0.00 30 1007.2
20260506213547 13 246 11.3 14.5 0.00 0.00 0.00 33 1007.2
20260506212547 12 247 14.5 16.1 0.00 0.00 0.00 33 1007.4
20260506211548 12 130 6.4 11.3 0.00 0.00 0.00 34 1007.6
20260506205548 13 294 16.1 19.3 0.00 0.00 0.00 33 1007.7
20260506204548 13 244 20.9 29.0 0.00 0.00 0.00 34 1007.8
20260506201547 13 265 6.4 11.3 0.00 0.00 0.00 35 1008.0
20260506200547 13 292 12.9 16.1 0.00 0.00 0.00 33 1008.2
20260506195548 13 254 11.3 14.5 0.00 0.00 0.00 34 1008.2
20260506194547 13 291 9.7 12.9 0.00 0.00 0.00 34 1008.2
20260506192548 12 237 16.1 20.9 0.00 0.00 0.00 36 1008.3
20260506191547 13 250 14.5 17.7 0.00 0.00 0.00 35 1008.3
20260506190548 12 253 8.0 9.7 0.00 0.00 0.00 36 1008.4
20260506185548 12 270 12.9 17.7 0.00 0.00 0.00 37 1008.4
20260506184548 12 244 20.9 24.1 0.00 0.00 0.00 36 1008.4
20260506183548 12 272 17.7 20.9 0.00 0.00 0.00 37 1008.3
20260506182547 12 248 9.7 12.9 0.00 0.00 0.00 36 1008.5
20260506181548 12 270 17.7 19.3 0.00 0.00 0.00 36 1008.6
20260506175547 11 259 14.5 19.3 0.00 0.00 0.00 37 1008.8
20260506174548 11 265 12.9 16.1 0.00 0.00 0.00 37 1008.8
20260506173547 11 257 14.5 19.3 0.00 0.00 0.00 36 1009.0
20260506172547 11 252 16.1 19.3 0.00 0.00 0.00 37 1009.0
20260506171548 11 250 11.3 16.1 0.00 0.00 0.00 38 1009.2
20260506170547 11 247 9.7 11.3 0.00 0.00 0.00 39 1009.1
20260506164547 10 276 6.4 6.4 0.00 0.00 0.00 40 1009.1
20260506163548 11 94 6.4 8.0 0.00 0.00 0.00 40 1009.2
20260506162548 10 261 14.5 19.3 0.00 0.00 0.00 40 1009.1
20260506161547 10 232 11.3 14.5 0.00 0.00 0.00 40 1009.1
20260506155548 10 209 8.0 11.3 0.00 0.00 0.00 41 1008.9
20260506154547 11 248 6.4 8.0 0.00 0.00 0.00 39 1009.0
20260506152827 12 239 8.0 11.3 0.00 0.00 0.00 43 1009.0
20260506151827 11 277 8.0 11.3 0.00 0.00 0.00 43 1009.0
20260506150828 11 271 4.8 4.8 0.00 0.00 0.00 41 1009.1
20260506145827 11 247 8.0 9.7 0.00 0.00 0.00 42 1009.1
20260506144827 10 300 4.8 6.4 0.00 0.00 0.00 43 1009.0
20260506143828 10 69 6.4 11.3 0.00 0.00 0.00 43 1008.8
20260506142827 10 268 9.7 12.9 0.00 0.00 0.00 43 1008.8
20260506141827 10 258 4.8 6.4 0.00 0.00 0.00 43 1008.8
20260506140827 10 73 4.8 6.4 0.00 0.00 0.00 43 1008.7
20260506135827 10 295 9.7 11.3 0.00 0.00 0.00 44 1008.8
20260506134826 9 263 6.4 6.4 0.00 0.00 0.00 44 1008.7
20260506132827 9 262 6.4 9.7 0.00 0.00 0.00 46 1008.2
20260506131826 9 292 4.8 6.4 0.00 0.00 0.00 46 1008.2
20260506130827 8 273 3.2 3.2 0.00 0.00 0.00 50 1008.2
20260506124827 7 288 3.2 3.2 0.00 0.00 0.00 52 1008.3
20260506122827 6 222 0.0 1.6 0.00 0.00 0.00 58 1008.2
20260506121828 5 271 1.6 3.2 0.00 0.00 0.00 61 1008.1
20260506120827 4 259 3.2 3.2 0.00 0.00 0.00 66 1008.2
20260506114828 2 267 1.6 1.6 0.00 0.00 0.00 69 1007.8
20260506113827 2 219 0.0 0.0 0.00 0.00 0.00 69 1007.5
20260506112827 2 243 0.0 0.0 0.00 0.00 0.00 69 1007.3
20260506110827 2 240 1.6 3.2 0.00 0.00 0.00 67 1007.1
20260506104827 3 243 0.0 1.6 0.00 0.00 0.00 64 1006.9